SAS1415 KLAS-EKCH

Flight info

Callsign SAS1415
Flight time N/A
Altitude 35000
Route RATPK3 FRNCK DCT MLF DCT CALUB DCT BXTER DCT BOY DCT LSCOM DCT KU12W DCT BOWIS DCT YBR DCT IKLIN DCT 54N090W 57N080W DCT TUNNI DCT JELCO DCT GRIBS/M082F350 DCT LIBOR DCT 63N050W 63N040W 63N030W 62N020W DCT RATSU/N0475F350 DCT DEVBI DCT DOSUN DCT KESEG DCT BEKET DCT ALOTI DCT PIXEG DCT DANKO DCT LUTUS DCT TESPI
Aircraft A343/H-SDE2E3FGHIJ4J5M1RWXY/LB1D1

Departure

Time N/A
Airport Harry Reid International Airport (KLAS)

Arrival

Time 2026-04-23 09:10
Airport Copenhagen Kastrup Airport (EKCH)
Time Latitude Longitude Altitude Speed Heading
2026-04-23 08:36 56.90031 7.08422 35339 ft 455 kts 116°
2026-04-23 08:37 56.87321 7.18920 35326 ft 454 kts 117°
2026-04-23 08:37 56.84624 7.29290 35318 ft 454 kts 117°
2026-04-23 08:38 56.81894 7.39740 35321 ft 454 kts 117°
2026-04-23 08:38 56.79188 7.50067 35314 ft 454 kts 117°
2026-04-23 08:39 56.76453 7.60461 35337 ft 454 kts 117°
2026-04-23 08:39 56.73698 7.70882 35319 ft 457 kts 117°
2026-04-23 08:40 56.70939 7.81266 35312 ft 457 kts 117°
2026-04-23 08:40 56.68167 7.91651 35316 ft 457 kts 117°
2026-04-23 08:41 56.65375 8.02089 35310 ft 457 kts 117°
2026-04-23 08:41 56.62696 8.12525 35312 ft 457 kts 115°
2026-04-23 08:42 56.60058 8.23039 35304 ft 460 kts 115°
2026-04-23 08:42 56.57399 8.33611 35303 ft 463 kts 115°
2026-04-23 08:43 56.54699 8.44256 35298 ft 462 kts 115°
2026-04-23 08:43 56.52022 8.54746 35299 ft 460 kts 115°
2026-04-23 08:44 56.49329 8.65245 35289 ft 459 kts 115°
2026-04-23 08:44 56.46619 8.75763 35292 ft 461 kts 115°
2026-04-23 08:45 56.43902 8.86261 35288 ft 463 kts 115°
2026-04-23 08:45 56.41170 8.96767 35290 ft 463 kts 115°
2026-04-23 08:46 56.38412 9.07321 35292 ft 463 kts 115°
2026-04-23 08:46 56.35662 9.17795 35292 ft 463 kts 115°
2026-04-23 08:47 56.32905 9.28249 35294 ft 464 kts 115°
2026-04-23 08:47 56.30142 9.38674 34958 ft 463 kts 115°
2026-04-23 08:48 56.28743 9.43938 34431 ft 465 kts 115°
2026-04-23 08:48 56.27357 9.49133 33871 ft 463 kts 115°
2026-04-23 08:48 56.25959 9.54362 33276 ft 461 kts 115°
2026-04-23 08:48 56.24585 9.59489 32701 ft 459 kts 115°
2026-04-23 08:49 56.23194 9.64664 32130 ft 457 kts 115°
2026-04-23 08:49 56.21807 9.69819 31572 ft 454 kts 115°
2026-04-23 08:49 56.20447 9.74862 31057 ft 452 kts 115°
2026-04-23 08:49 56.19074 9.79941 30507 ft 450 kts 114°
2026-04-23 08:50 56.17718 9.84955 29928 ft 448 kts 114°
2026-04-23 08:50 56.16344 9.90022 29301 ft 445 kts 114°
2026-04-23 08:50 56.15001 9.94960 28678 ft 443 kts 114°
2026-04-23 08:50 56.13644 9.99940 28009 ft 442 kts 114°
2026-04-23 08:51 56.12300 10.04861 27362 ft 441 kts 115°
2026-04-23 08:51 56.10945 10.09814 26724 ft 441 kts 115°
2026-04-23 08:51 56.09604 10.14705 26111 ft 440 kts 115°
2026-04-23 08:51 56.08254 10.19620 25500 ft 438 kts 115°
2026-04-23 08:52 56.06899 10.24536 24901 ft 437 kts 115°
2026-04-23 08:52 56.05568 10.29360 24337 ft 436 kts 115°
2026-04-23 08:52 56.04216 10.34250 23741 ft 435 kts 115°
2026-04-23 08:52 56.02866 10.39119 23061 ft 433 kts 115°
2026-04-23 08:53 56.01536 10.43908 22401 ft 431 kts 114°
2026-04-23 08:53 56.00213 10.48659 21755 ft 430 kts 114°
2026-04-23 08:53 55.98879 10.53439 21383 ft 422 kts 114°
2026-04-23 08:53 55.97591 10.58040 21168 ft 410 kts 114°
2026-04-23 08:54 55.96331 10.62526 20962 ft 399 kts 114°
2026-04-23 08:54 55.95105 10.66882 20768 ft 389 kts 114°
2026-04-23 08:54 55.93894 10.71181 20587 ft 379 kts 114°
2026-04-23 08:54 55.92726 10.75323 20419 ft 369 kts 114°
2026-04-23 08:55 55.91599 10.79320 20275 ft 360 kts 114°
2026-04-23 08:55 55.90480 10.83286 20124 ft 351 kts 114°
2026-04-23 08:55 55.89398 10.87119 19901 ft 346 kts 114°
2026-04-23 08:55 55.88321 10.90934 19610 ft 344 kts 114°
2026-04-23 08:56 55.87244 10.94738 19302 ft 342 kts 114°
2026-04-23 08:56 55.86173 10.98512 19000 ft 341 kts 114°
2026-04-23 08:56 55.85110 11.02250 18697 ft 339 kts 114°
2026-04-23 08:56 55.84036 11.06015 18375 ft 338 kts 114°
2026-04-23 08:57 55.82976 11.09724 18012 ft 337 kts 114°
2026-04-23 08:57 55.81915 11.13429 17668 ft 337 kts 114°
2026-04-23 08:57 55.80857 11.17120 17325 ft 336 kts 114°
2026-04-23 08:57 55.79800 11.20797 17012 ft 335 kts 114°
2026-04-23 08:58 55.78733 11.24505 16681 ft 334 kts 114°
2026-04-23 08:58 55.77679 11.28161 16381 ft 332 kts 114°
2026-04-23 08:58 55.76630 11.31795 16027 ft 333 kts 114°
2026-04-23 08:58 55.75562 11.35491 15672 ft 334 kts 114°
2026-04-23 08:59 55.74503 11.39151 15392 ft 334 kts 114°
2026-04-23 08:59 55.73443 11.42808 15115 ft 333 kts 114°
2026-04-23 08:59 55.72386 11.46444 14839 ft 332 kts 114°
2026-04-23 08:59 55.71321 11.50104 14564 ft 332 kts 114°
2026-04-23 09:00 55.70270 11.53708 14285 ft 331 kts 114°
2026-04-23 09:00 55.69566 11.56119 14094 ft 331 kts 114°
2026-04-23 09:00 55.68439 11.59977 13775 ft 330 kts 114°
2026-04-23 09:00 55.67382 11.63589 13497 ft 328 kts 114°
2026-04-23 09:01 55.66337 11.67151 13220 ft 326 kts 114°
2026-04-23 09:01 55.65293 11.70707 12885 ft 323 kts 114°
2026-04-23 09:01 55.64260 11.74221 12315 ft 318 kts 114°
2026-04-23 09:01 55.63246 11.77671 11638 ft 316 kts 114°
2026-04-23 09:02 55.62240 11.81085 11033 ft 313 kts 114°
2026-04-23 09:02 55.61245 11.84460 10588 ft 303 kts 115°
2026-04-23 09:02 55.60286 11.87696 10370 ft 288 kts 114°
2026-04-23 09:02 55.59372 11.90775 10048 ft 278 kts 114°
2026-04-23 09:03 55.58489 11.93762 9606 ft 273 kts 114°
2026-04-23 09:03 55.57618 11.96710 9153 ft 270 kts 114°
2026-04-23 09:03 55.56747 11.99656 8691 ft 266 kts 114°
2026-04-23 09:03 55.55898 12.02523 8247 ft 263 kts 114°
2026-04-23 09:04 55.55047 12.05387 7800 ft 261 kts 114°
2026-04-23 09:04 55.54214 12.08180 7340 ft 258 kts 113°
2026-04-23 09:04 55.53379 12.10986 6872 ft 256 kts 113°
2026-04-23 09:04 55.52639 12.13818 6391 ft 252 kts 107°
2026-04-23 09:05 55.51991 12.16636 5921 ft 250 kts 107°
2026-04-23 09:05 55.51348 12.19496 5527 ft 250 kts 106°
2026-04-23 09:05 55.50720 12.22328 5422 ft 243 kts 106°
2026-04-23 09:05 55.50123 12.25052 5342 ft 236 kts 105°
2026-04-23 09:06 55.49542 12.27725 5252 ft 228 kts 105°
2026-04-23 09:06 55.48983 12.30321 4965 ft 231 kts 105°
2026-04-23 09:06 55.48401 12.33056 4416 ft 245 kts 105°
2026-04-23 09:06 55.47783 12.35944 3863 ft 257 kts 106°
2026-04-23 09:07 55.47244 12.38967 3293 ft 261 kts 93°
2026-04-23 09:07 55.47516 12.41983 3015 ft 240 kts 56°
2026-04-23 09:07 55.48537 12.44109 2850 ft 224 kts 36°
2026-04-23 09:07 55.49766 12.45812 2549 ft 223 kts 34°
2026-04-23 09:08 55.50943 12.47553 2241 ft 224 kts 38°
2026-04-23 09:08 55.52109 12.49410 1915 ft 225 kts 38°
2026-04-23 09:08 55.53263 12.51180 1605 ft 217 kts 38°
2026-04-23 09:08 55.54377 12.52888 1313 ft 204 kts 37°
2026-04-23 09:09 55.55408 12.54477 1048 ft 193 kts 38°
2026-04-23 09:09 55.56402 12.56007 786 ft 185 kts 38°
2026-04-23 09:09 55.57360 12.57486 543 ft 179 kts 38°
2026-04-23 09:09 55.58265 12.58880 300 ft 171 kts 39°
2026-04-23 09:10 55.59150 12.60244 48 ft 164 kts 40°
2026-04-23 09:10 55.60430 12.62211 26 ft 56 kts 34°
2026-04-23 09:10 55.60689 12.62363 25 ft 13 kts 12°
2026-04-23 09:11 55.60762 12.62394 24 ft 21 kts 17°
2026-04-23 09:11 55.60889 12.62554 22 ft 25 kts 42°
2026-04-23 09:11 55.61058 12.62814 21 ft 38 kts 40°
2026-04-23 09:11 55.61287 12.63169 25 ft 49 kts 41°
2026-04-23 09:12 55.61560 12.63593 21 ft 52 kts 41°
2026-04-23 09:12 55.61823 12.63998 22 ft 49 kts 41°
2026-04-23 09:12 55.62106 12.64266 21 ft 45 kts 25°
2026-04-23 09:12 55.62288 12.64560 24 ft 33 kts 67°
2026-04-23 09:13 55.62339 12.64750 23 ft 8 kts 47°
2026-04-23 09:13 55.62431 12.64778 24 ft 19 kts 358°
2026-04-23 09:13 55.62524 12.64771 22 ft 1 kts 359°
2026-04-23 09:13 55.62554 12.64833 21 ft 0 kts 95°
2026-04-23 09:14 55.62554 12.64875 21 ft 1 kts 89°
2026-04-23 09:14 55.62554 12.64888 21 ft 0 kts 88°
2026-04-23 09:14 55.62554 12.64889 21 ft 0 kts 88°